Makes:
Tunes:
Uploaded Owner Vehicle Name Engine Make/Code Tune Note Cylinders Liters Compression Aspiration Views Options
2022-10-17 04:42:11foesLEXUS IS200TOYOTA 1G-FE
62.008.50:1Turbo1💾
2022-10-17 00:01:54foesLEXUS IS200TOYOTA 1G-FE
62.008.50:1Turbo1💾
Logs:
Uploaded Owner Duration Views Options
2023-02-06 11:21:25jabran32.1 secs16💾
2023-02-02 18:02:07jabran23.3 secs25💾
2023-02-02 17:58:17jabran39.7 secs28💾
2023-02-02 15:33:26Slim80421.7 secs19💾
2023-02-02 12:55:17mtmotorsport19.7 secs10💾
2023-01-30 13:34:08Slim80435.6 secs65💾
2023-01-30 01:33:31foes31 secs22💾
2023-01-28 13:47:57jabran34.3 secs22💾
2023-01-28 13:45:55jabran34.3 secs16💾
2023-01-19 12:11:39...S...16.7 secs22💾
2023-01-17 16:24:45bill10 min 29 secs27💾
2023-01-17 15:08:53NormanAlphaspeed6.1 secs32💾
2023-01-17 12:04:53NormanAlphaspeed11.4 secs38💾
2023-01-12 16:44:41AndreyB5.35 secs24💾
2023-01-11 00:48:23AndreyB29 secs24💾
2023-01-11 00:45:08AndreyB23.8 secs22💾
2023-01-10 14:15:11AndreyB15.5 secs26💾
2023-01-10 14:09:15bill2 min 48 secs47💾
2023-01-09 23:21:36Hmelik43.3 secs34💾
2023-01-09 19:29:14neongreen52.3 secs34💾
2023-01-09 15:36:09Hmelik27.5 secs34💾
2023-01-09 15:35:25Hmelik38 secs37💾
2023-01-09 15:27:17neongreen34.4 secs25💾
2023-01-08 15:18:17AndreyB13.8 secs26💾
2023-01-02 17:34:41NormanAlphaspeed7.58 secs41💾
2023-01-02 17:30:34NormanAlphaspeed35.8 secs39💾
2022-12-31 18:01:47NormanAlphaspeed25 secs55💾
2022-12-30 09:15:39OSprey428 min 49 secs22💾
2022-12-22 15:57:47BeerMoneyMotorsports27.1 secs28💾
2022-12-19 16:23:25NormanAlphaspeed8.91 secs56💾
2022-12-19 01:55:09OSprey423 min 30 secs38💾
2022-12-19 01:41:26OSprey423 min 30 secs30💾
2022-12-18 18:24:23OSprey422 min 34 secs29💾
2022-12-17 01:43:10NormanAlphaspeed2 min 31 secs53💾
2022-12-13 15:15:54NormanAlphaspeed13.5 secs41💾
2022-12-13 15:14:56NormanAlphaspeed8.85 secs81💾
2022-12-13 14:03:45Sarim29 secs36💾
2022-12-13 14:03:19Sarim17.2 secs37💾
2022-12-12 10:22:09Ross9451.1 secs37💾
2022-12-07 09:43:26roadcone8 min 8 secs41💾
2022-12-06 18:57:14NormanAlphaspeed9.54 secs42💾
2022-12-06 13:38:05NormanAlphaspeed21.3 secs40💾
2022-12-06 13:10:40Sarim49.4 secs32💾
2022-12-06 12:43:05Sarim35.6 secs37💾
2022-12-06 12:39:33NormanAlphaspeed24.2 secs37💾
2022-12-06 12:37:56NormanAlphaspeed5.75 secs44💾
2022-11-30 17:11:34AndreyB6.09 secs44💾
2022-11-30 14:15:46Sarim37 secs67💾
2022-11-26 21:58:01AndreyB10.8 secs53💾
2022-11-25 10:28:03NormanAlphaspeed14 secs49💾
2022-11-23 13:03:01jabran14.4 secs50💾
2022-11-23 10:54:54Sarim55.8 secs43💾
2022-11-23 09:36:44Sarim31.2 secs39💾
2022-11-22 16:41:08NormanAlphaspeed1 min 6 secs55💾
2022-11-22 16:39:32NormanAlphaspeed18.5 secs42💾
2022-11-22 16:30:07NormanAlphaspeed14.6 secs52💾
2022-11-22 16:27:56NormanAlphaspeed29.6 secs60💾
2022-11-21 10:53:16AndreyB14 secs44💾
2022-11-21 10:52:39AndreyB10.9 secs49💾
2022-11-20 17:06:10NormanAlphaspeed2 min 17 secs48💾
2022-11-20 15:16:34NormanAlphaspeed9.79 secs77💾
2022-11-19 07:26:12Sarim31.9 secs33💾
2022-11-18 15:19:46Sarim4 min 20 secs71💾
2022-11-18 15:19:28Sarim4 min 20 secs37💾
2022-11-11 16:55:01BeerMoneyMotorsports1 min 51 secs46💾
2022-11-11 16:15:26BeerMoneyMotorsports1 min 50 secs69💾
2022-11-06 21:34:3610AE073926 min 19 secs46💾
2022-11-06 21:31:5510AE07397 min 52 secs52💾
2022-11-03 00:13:53calebchesh1 min 16 secs59💾
2022-11-02 09:51:32calebchesh3 min 50 secs60💾
2022-10-29 09:45:11bill47.6 secs49💾
2022-10-28 16:06:42AndreyB9.6 secs76💾
2022-10-28 15:32:52bill47.4 secs57💾
2022-10-28 15:04:06StoneFastMercs25.5 secs51💾
2022-10-28 14:39:21StoneFastMercs25.5 secs51💾
2022-10-28 11:39:41StoneFastMercs43.8 secs48💾
2022-10-19 15:57:59wreckracing3 min 22 secs66💾
2022-10-19 10:20:14Dron_Gus26.6 secs57💾
2022-10-17 19:12:31foes32.1 secs72💾
2022-10-17 18:53:28foes36.7 secs81💾
2022-10-17 03:28:11foes57.9 secs71💾
2022-10-17 00:14:04foes33.4 secs66💾
2022-10-15 05:00:04NormanAlphaspeed12.1 secs67💾
2022-10-13 15:16:31StoneFastMercs9.4 secs53💾
2022-10-11 02:24:44NormanAlphaspeed13.9 secs57💾
2022-10-08 12:13:44pk38621.5 secs55💾
2022-10-07 23:57:17NormanAlphaspeed21.1 secs81💾
2022-10-07 20:46:26NormanAlphaspeed22.5 secs73💾
2022-10-07 20:07:18pk38611.7 secs56💾
2022-10-07 00:56:15NormanAlphaspeed17.9 secs55💾
2022-10-07 00:49:09NormanAlphaspeed13.7 secs98💾
2022-10-06 22:26:06NormanAlphaspeed44.8 secs58💾
2022-10-06 22:02:58NormanAlphaspeed12.6 secs63💾
2022-10-06 19:26:56NormanAlphaspeed20.1 secs64💾
2022-10-05 02:24:15NormanAlphaspeed16.8 secs70💾
2022-10-03 11:50:37Kyocmondeo19.3 secs51💾
2022-10-03 11:17:20Kyocmondeo37.2 secs53💾
2022-09-30 15:58:51Kyocmondeo9.86 secs57💾
2022-09-29 20:27:31Cadence38 min 23 secs69💾
2022-09-28 18:35:32duhafnusa42 min 17 secs64💾
2022-09-28 09:38:46JRD McLAREN50.7 secs53💾
2022-09-28 09:38:11JRD McLAREN34.6 secs56💾
2022-09-28 09:37:40JRD McLAREN29.7 secs52💾
2022-09-28 00:29:32duhafnusa448.9 secs59💾
2022-09-26 13:02:18duhafnusa44 min 4 secs83💾
2022-09-26 04:35:16NormanAlphaspeed11.5 secs62💾
2022-09-26 04:25:55NormanAlphaspeed39.1 secs57💾
2022-09-23 22:45:00NormanAlphaspeed8.78 secs59💾
2022-09-23 22:42:34OSprey4220 min 22 secs53💾
2022-09-23 16:37:55AndreyB7.61 secs73💾
2022-09-21 12:52:31duhafnusa43 min 37 secs58💾
2022-09-21 00:54:14biohazardav37 secs53💾
2022-09-20 21:04:46BeerMoneyMotorsports10 min 38 secs56💾
2022-09-18 19:11:19AndreyB8.52 secs71💾
2022-09-18 18:46:50AndreyB23 secs56💾
2022-09-15 20:20:20NormanAlphaspeed14.4 secs70💾
2022-09-14 18:34:14stefanst56.6 secs69💾
2022-09-12 17:01:14biohazardav35 min 5 secs88💾
2022-09-11 18:38:09NormanAlphaspeed4.04 secs79💾
2022-09-11 18:37:44NormanAlphaspeed7 secs81💾
2022-09-11 18:13:15NormanAlphaspeed5.43 secs78💾
2022-09-09 19:14:32BeerMoneyMotorsports30 min 18 secs77💾
2022-09-09 14:22:51NormanAlphaspeed27.8 secs71💾
2022-09-09 02:07:36AndreyB14.6 secs70💾
2022-09-07 18:28:00NormanAlphaspeed17.2 secs72💾
2022-09-07 16:55:22WOOL2 min 35 secs68💾
2022-09-06 17:53:10NormanAlphaspeed7.99 secs79💾
2022-09-05 21:33:26OSprey4219 min 7 secs76💾
2022-09-05 18:28:22NormanAlphaspeed17.2 secs81💾
2022-09-05 12:47:48NormanAlphaspeed11.8 secs78💾
2022-09-05 02:35:19NormanAlphaspeed8.9 secs78💾
2022-09-04 22:47:08NormanAlphaspeed15.5 secs74💾
2022-09-04 17:35:46NormanAlphaspeed8.9 secs76💾
2022-09-04 12:20:08Noah Levreau7 min 59 secs74💾
2022-09-04 01:37:25OSprey4223 min 54 secs91💾
2022-09-03 13:45:19stefanst1 min 12 secs77💾
2022-09-03 13:19:24stefanst11.9 secs62💾
2022-09-03 11:03:31Pappase3610 min 33 secs72💾
2022-09-03 10:04:17NormanAlphaspeed53.9 secs56💾
2022-09-02 10:57:14Pappase361 min 15 secs71💾
2022-09-01 17:35:30NormanAlphaspeed8.45 secs85💾
2022-09-01 15:57:13md_sanci10 min 54 secs67💾
2022-08-31 22:52:3810AE07391 min 45 secs63💾
2022-08-31 22:20:5010AE07394 min 9 secs58💾
2022-08-30 22:50:2910AE07394 min 44 secs70💾
2022-08-30 22:36:5210AE07395 min 26 secs69💾
2022-08-30 20:12:35NormanAlphaspeed7.22 secs111💾
2022-08-30 17:17:0510AE07394 min 25 secs76💾
2022-08-27 23:04:24Windsor35826.7 secs80💾
2022-08-27 18:44:56Noah Levreau7 min 51 secs74💾
2022-08-27 08:34:49stwillocks1 min 20 secs74💾
2022-08-27 08:14:16stwillocks2 min 49 secs69💾
2022-08-27 08:13:14stwillocks20.2 secs84💾
2022-08-27 06:54:42stwillocks6 min 37 secs75💾
2022-08-27 06:51:54stwillocks2 min 13 secs64💾
2022-08-26 22:33:41Pappase3636 min 46 secs78💾
2022-08-25 21:32:16Pappase3619 min 43 secs100💾
2022-08-25 21:30:53Pappase3619 min 43 secs72💾
2022-08-25 18:55:18NormanAlphaspeed7.79 secs75💾
2022-08-25 18:32:45NormanAlphaspeed9.1 secs82💾
2022-08-25 16:10:43BeerMoneyMotorsports48.7 secs81💾
2022-08-24 15:07:35mx5newbie3 min 30 secs93💾
2022-08-23 21:52:53NormanAlphaspeed8.7 secs115💾
2022-08-23 18:55:53NormanAlphaspeed6.14 secs104💾
2022-08-23 12:28:42NormanAlphaspeed4.96 secs70💾
2022-08-22 16:34:10NormanAlphaspeed6.66 secs67💾
2022-08-22 15:26:15NormanAlphaspeed11.6 secs78💾
2022-08-22 14:47:57NormanAlphaspeed14 secs85💾
2022-08-22 14:42:28NormanAlphaspeed14 secs65💾
2022-08-22 14:16:56NormanAlphaspeed9.16 secs56💾
2022-08-22 13:03:40Nightsknight4555.7 secs71💾
2022-08-21 12:07:01Dron_Gus6.52 secs61💾
2022-08-21 11:51:29Dron_Gus12.5 secs63💾
2022-08-20 18:01:46NormanAlphaspeed9.99 secs67💾
2022-08-20 18:00:22NormanAlphaspeed10.7 secs65💾
2022-08-19 17:21:29NormanAlphaspeed6.73 secs60💾
2022-08-19 17:20:32NormanAlphaspeed6.24 secs76💾
2022-08-19 17:09:50NormanAlphaspeed7.09 secs65💾
2022-08-19 16:58:11NormanAlphaspeed7.83 secs61💾
2022-08-19 16:56:42NormanAlphaspeed12.5 secs64💾
2022-08-19 16:41:32NormanAlphaspeed14.6 secs64💾
2022-08-19 16:28:50NormanAlphaspeed22.6 secs60💾
2022-08-19 14:38:42NormanAlphaspeed20.6 secs65💾
2022-08-19 14:18:30NormanAlphaspeed3.89 secs62💾
2022-08-19 14:13:34NormanAlphaspeed14.9 secs64💾
2022-08-19 13:58:53NormanAlphaspeed40 secs64💾
2022-08-19 13:45:29NormanAlphaspeed7.9 secs67💾
2022-08-19 13:02:02NormanAlphaspeed13.4 secs70💾
2022-08-18 20:32:39AndreyB16.9 secs74💾
2022-08-18 20:04:35AndreyB14.3 secs92💾
2022-08-14 16:40:00JakeD11216.9 secs82💾
2022-08-14 12:27:17NormanAlphaspeed33.1 secs86💾
2022-08-14 12:23:39NormanAlphaspeed12.2 secs89💾
2022-08-14 11:54:07NormanAlphaspeed10.3 secs83💾
2022-08-14 11:38:18NormanAlphaspeed16.7 secs87💾
2022-08-14 11:36:32NormanAlphaspeed11.9 secs93💾
2022-08-13 09:44:24mrejda4 min 1 sec82💾
2022-08-13 09:43:08mrejda6 min 58 secs77💾
2022-08-12 19:27:54NormanAlphaspeed21.3 secs93💾
2022-08-12 16:38:56NormanAlphaspeed12.1 secs65💾
2022-08-12 10:50:04Hmelik2 min 19 secs68💾
2022-08-11 17:58:55NormanAlphaspeed9.85 secs85💾
2022-08-11 17:58:21NormanAlphaspeed22.8 secs76💾
2022-08-11 17:57:05NormanAlphaspeed1 min 14 secs77💾
2022-08-10 16:26:36Creesic5 min 17 secs75💾
2022-08-10 16:23:40Creesic5 min 17 secs65💾
2022-08-08 20:57:05Pappase361 h 26 min 40 secs83💾
2022-08-08 20:54:37Pappase363 h 13 min 53 secs126💾
2022-08-08 10:05:04AndreyB18.6 secs85💾
2022-08-08 00:19:17AndreyB11.3 secs82💾
2022-08-07 23:03:34Creesic3 min 46 secs76💾
2022-08-06 23:41:10Creesic4 min 42 secs83💾
2022-08-06 22:47:36Creesic4 min 5 secs78💾
2022-08-06 15:11:45Creesic21.9 secs78💾
2022-08-05 22:09:23Keith1 min 10 secs81💾
2022-08-05 20:21:05JakeD11218.2 secs84💾
2022-08-05 16:02:16Keith26 min 7 secs82💾
2022-08-05 16:01:46Keith1 h 7 min 9 secs76💾
2022-08-05 07:35:37OSprey4217 min 8 secs78💾
2022-08-05 07:35:08OSprey427 min 10 secs72💾
2022-07-29 12:56:16mrejda52.2 secs86💾
2022-07-26 17:40:27ridewhencan53 secs86💾
2022-07-26 17:30:26Creesic16.8 secs91💾
2022-07-22 21:47:14deadshot18r2 min 16 secs76💾
2022-07-20 15:48:01Lambo9739.3 secs91💾
2022-07-16 16:28:24duhafnusa417.4 secs97💾
2022-07-15 09:26:31Cadence17 min 28 secs96💾
2022-07-13 22:59:13Lambo9759.6 secs78💾
2022-07-11 20:34:41Lambo978 min 13 secs84💾
2022-07-11 17:48:20Cadence14 min 28 secs82💾
2022-07-11 11:12:49stefanst48.3 secs77💾
2022-07-09 16:23:13moistbrochure1 min 2 secs73💾
2022-07-08 21:22:45duhafnusa48 min 2 secs88💾
2022-07-08 21:16:29duhafnusa452 secs91💾
2022-07-08 18:27:28duhafnusa48 min 2 secs88💾
2022-07-07 22:33:30stefanst6.54 secs85💾
2022-07-07 18:51:59moistbrochure5 min 29 secs85💾
2022-07-04 07:47:56ridewhencan4 min 32 secs104💾
2022-07-03 20:37:41duhafnusa46 min 53 secs96💾
2022-07-03 12:47:19duhafnusa45 min 7 secs121💾
2022-07-02 15:51:08duhafnusa49 min 51 secs87💾
2022-07-01 22:11:08AndreyB29.5 secs93💾
2022-06-28 14:44:24NormanAlphaspeed11.5 secs122💾
2022-06-23 13:34:55ridewhencan41.6 secs113💾
2022-06-23 13:33:09ridewhencan49.2 secs94💾
2022-06-23 13:31:56ridewhencan1 min 51 secs93💾
2022-06-22 19:33:04ridewhencan1 min 42 secs83💾
2022-06-20 22:19:26ridewhencan28.9 secs97💾
2022-06-20 21:58:47nmstec1 min 26 secs110💾
2022-06-20 20:55:54nmstec1 min 46 secs97💾
2022-06-20 20:52:15nmstec0 secs98💾
2022-06-20 17:20:14ridewhencan30.7 secs105💾
2022-06-20 08:48:32ridewhencan19.3 secs119💾
2022-06-20 00:08:00nmstec1 min 45 secs101💾
2022-06-19 18:27:36AndreyB3.66 secs122💾
2022-06-19 18:27:04AndreyB7.57 secs143💾
2022-06-19 09:40:52ridewhencan41.6 secs122💾
2022-06-19 09:08:05ridewhencan41.8 secs99💾
2022-06-18 13:07:26nmstec26.8 secs79💾
2022-06-17 23:28:41NormanAlphaspeed39.9 secs84💾
2022-06-17 22:59:50nmstec10.3 secs89💾
2022-06-17 16:51:22nmstec16.2 secs89💾
2022-06-17 16:50:42nmstec13.7 secs87💾
2022-06-17 16:49:53nmstec20.3 secs98💾
2022-06-17 16:48:13nmstec17.5 secs92💾
2022-06-17 08:49:29nmstec1 min 33 secs101💾
2022-06-16 07:26:16JRD McLAREN14.2 secs121💾
2022-06-15 19:00:27nmstec24.2 secs91💾
2022-06-15 18:57:59nmstec23.1 secs142💾
2022-06-15 18:52:07nmstec7.23 secs107💾
2022-06-15 18:48:34nmstec34.2 secs97💾
2022-06-15 17:08:49nmstec1 min 4 secs107💾
2022-06-15 17:08:07nmstec56.2 secs91💾
2022-06-15 14:34:39nmstec1 min 28 secs88💾
2022-06-14 20:22:38NormanAlphaspeed9.15 secs95💾
2022-06-14 19:17:12NormanAlphaspeed24.9 secs90💾
2022-06-14 19:16:48NormanAlphaspeed10.4 secs109💾
2022-06-14 17:54:18nmstec4 min 40 secs103💾
2022-06-14 17:53:34nmstec4 min 40 secs94💾
2022-06-13 17:18:06NormanAlphaspeed10.4 secs160💾
2022-06-13 16:53:47NormanAlphaspeed24.9 secs96💾
2022-06-13 12:15:21NormanAlphaspeed43.1 secs94💾
2022-06-10 19:50:35NormanAlphaspeed43.1 secs98💾
2022-06-07 18:43:20NormanAlphaspeed20.7 secs107💾
2022-06-07 15:49:32nmstec2 min 28 secs96💾
2022-06-06 22:01:46nmstec27.4 secs88💾
2022-06-06 22:01:14nmstec28.2 secs80💾
2022-06-06 22:00:42nmstec31.4 secs93💾
2022-06-06 21:32:06AndreyB1 min 3 secs92💾
2022-06-06 21:25:08AndreyB1 min 3 secs92💾
2022-06-06 21:24:54AndreyB1 min 3 secs83💾
2022-06-06 16:56:20stayros320015 min 2 secs97💾
2022-06-05 18:17:15nmstec1 min 17 secs99💾
2022-06-05 16:44:15nmstec1 min 32 secs97💾
2022-06-05 14:15:07duhafnusa45 min 12 secs96💾
2022-06-04 12:36:16ELMEPRO19 secs125💾
2022-06-03 19:32:34nmstec20.3 secs106💾
2022-06-03 19:10:55nmstec13.7 secs104💾
2022-06-03 14:28:12Krakert5.78 secs106💾
2022-06-03 14:26:35Krakert58 secs119💾
2022-06-02 23:02:56nmstec12.9 secs110💾
2022-06-02 22:43:22nmstec9.94 secs103💾
2022-06-02 22:41:05nmstec8.25 secs104💾
2022-06-02 22:25:04nmstec7.19 secs112💾
2022-06-02 12:49:24BeerMoneyMotorsports9.23 secs107💾
2022-06-01 22:43:14duhafnusa415.5 secs102💾
2022-06-01 22:08:34Ken Hill53.3 secs100💾
2022-06-01 21:47:33Ken Hill53.3 secs99💾
2022-05-31 11:13:23BeerMoneyMotorsports25.7 secs110💾
2022-05-31 10:11:11Nightsknight453 min 48 secs106💾
2022-05-29 14:11:27nmstec30.5 secs91💾
2022-05-27 19:52:01BeerMoneyMotorsports1 min 25 secs90💾
2022-05-26 19:47:10NormanAlphaspeed13.4 secs108💾
2022-05-25 15:32:27Mad Rat34.8 secs118💾
2022-05-23 18:54:54opelpanfan4 min 3 secs124💾
2022-05-23 18:49:39opelpanfan4 min 3 secs109💾
2022-05-23 18:22:33BeerMoneyMotorsports31.3 secs107💾
2022-05-23 18:13:05BeerMoneyMotorsports21.3 secs111💾
2022-05-23 17:49:37BeerMoneyMotorsports19.5 secs112💾
2022-05-23 17:31:49BeerMoneyMotorsports20.9 secs102💾
2022-05-23 16:22:05nmstec30.3 secs101💾
2022-05-23 16:20:41nmstec2 min 13 secs110💾
2022-05-23 13:03:33JRD McLAREN1 min 2 secs112💾
2022-05-23 13:03:01JRD McLAREN48.7 secs104💾
2022-05-23 13:02:36JRD McLAREN2 min 40 secs130💾
2022-05-23 12:50:35JRD McLAREN1 min 2 secs98💾
2022-05-22 13:29:18nmstec2 min 59 secs105💾
2022-05-22 13:27:06nmstec2 min 59 secs100💾
2022-05-21 22:07:22duhafnusa42 min 18 secs116💾
2022-05-20 00:27:58nmstec32.2 secs96💾
2022-05-20 00:17:39nmstec29.1 secs112💾
2022-05-20 00:15:26nmstec27.4 secs115💾
2022-05-20 00:08:16nmstec8.83 secs106💾
2022-05-20 00:07:26nmstec9.36 secs127💾
2022-05-19 23:35:59nmstec15.1 secs107💾
2022-05-19 23:33:33nmstec34 secs112💾
2022-05-19 22:22:24nmstec16.4 secs110💾
2022-05-19 21:26:14nmstec57 secs106💾
2022-05-19 21:18:42nmstec25 secs121💾
2022-05-19 16:29:37nmstec31.5 secs101💾
2022-05-19 16:14:08nmstec18.6 secs124💾
2022-05-19 14:18:23nmstec19.9 secs111💾
2022-05-19 14:14:42nmstec24.9 secs103💾
2022-05-19 14:08:03nmstec24.9 secs117💾
2022-05-19 13:59:32nmstec10.1 secs126💾
2022-05-19 12:39:28nmstec19.9 secs99💾
2022-05-19 12:05:27nmstec12.1 secs103💾
2022-05-19 08:40:56WagemaWandimi41.3 secs150💾
2022-05-19 08:38:28WagemaWandimi41.3 secs115💾
2022-05-19 01:17:40nmstec19.4 secs123💾
2022-05-19 00:18:53nmstec17.5 secs122💾
2022-05-14 22:26:17OSprey4228.1 secs114💾
2022-05-14 00:14:13nmstec1 min 59 secs89💾
2022-05-13 23:45:15nmstec1 min 45 secs92💾
2022-05-13 23:38:55nmstec1 min 57 secs96💾
2022-05-13 23:34:58nmstec2 min 58 secs100💾
2022-05-13 04:27:46OSprey4228.8 secs107💾
2022-05-13 02:13:07nmstec1 min 11 secs116💾
2022-05-12 23:41:51nmstec36.2 secs111💾
2022-05-12 23:23:12nmstec2 min 42 secs122💾
2022-05-12 22:48:31nmstec35.1 secs107💾
2022-05-12 14:51:52BeerMoneyMotorsports17.7 secs102💾
2022-05-12 14:30:18nmstec43.9 secs106💾
2022-05-12 14:26:08BeerMoneyMotorsports6 min 4 secs111💾
2022-05-12 03:32:26WagemaWandimi1 min 19 secs95💾
2022-05-11 18:36:31Lambo977.09 secs111💾
2022-05-11 18:22:26Lambo9710.8 secs110💾
2022-05-10 22:35:55WagemaWandimi1 min 25 secs138💾
2022-05-10 21:55:37WagemaWandimi1 min 25 secs112💾
2022-05-10 20:51:35WagemaWandimi43.9 secs96💾
2022-05-10 20:47:26WagemaWandimi43.9 secs106💾
2022-05-10 20:25:11WagemaWandimi12.9 secs120💾
2022-05-10 20:18:42WagemaWandimi12.4 secs108💾
2022-05-09 17:30:27Lambo9749.9 secs125💾
2022-05-09 15:14:27augenblick12 min 35 secs116💾
2022-05-06 19:03:06stwillocks2 min 5 secs121💾
2022-05-06 19:01:41stwillocks45.2 secs100💾
2022-05-05 16:35:48nmstec11.3 secs106💾
2022-05-04 13:49:10Cadence20 min 9 secs118💾
2022-05-02 08:16:39Cadence27 min 34 secs184💾
2022-05-01 18:17:24BeerMoneyMotorsports7 min102💾
2022-04-30 13:49:41BeerMoneyMotorsports1 min 12 secs103💾
2022-04-29 11:10:34tmbryhn3 min 29 secs94💾
2022-04-29 10:48:07duhafnusa49 min 46 secs151💾
2022-04-28 23:54:13Lambo9731.3 secs125💾
2022-04-28 20:39:52Lambo9722.5 secs105💾
2022-04-28 14:40:59AndreyB33.9 secs128💾
2022-04-28 14:40:22AndreyB23.7 secs131💾
2022-04-28 13:31:04AndreyB5.44 secs112💾
2022-04-28 13:30:12AndreyB5.44 secs136💾
2022-04-27 05:53:08kneelo50 secs120💾
2022-04-26 18:18:29AndreyB41.5 secs139💾
2022-04-26 18:18:24AndreyB41.5 secs109💾
2022-04-26 18:01:30NormanAlphaspeed1 min 20 secs105💾
2022-04-26 16:56:21NormanAlphaspeed54.6 secs114💾
2022-04-24 20:13:28BeerMoneyMotorsports17.7 secs107💾
2022-04-24 20:12:41BeerMoneyMotorsports47.4 secs99💾
2022-04-24 20:11:54BeerMoneyMotorsports18.3 secs108💾
2022-04-24 20:09:30BeerMoneyMotorsports37.6 secs91💾
2022-04-24 16:12:12BeerMoneyMotorsports16.4 secs89💾
2022-04-24 14:37:56BeerMoneyMotorsports32.2 secs130💾
2022-04-23 17:31:31BeerMoneyMotorsports27.4 secs126💾
2022-04-23 17:01:46BeerMoneyMotorsports23.9 secs134💾
2022-04-23 05:58:26Kristian1 min 29 secs109💾
2022-04-22 21:28:50NormanAlphaspeed1 min 5 secs127💾
2022-04-21 14:24:35BeerMoneyMotorsports5 min 12 secs134💾
2022-04-20 05:35:51kneelo53.5 secs132💾
2022-04-20 05:22:16kneelo27 secs130💾
2022-04-19 19:28:49Lambo977 min 33 secs136💾
2022-04-19 18:43:52NormanAlphaspeed17 secs131💾
2022-04-19 15:54:06NormanAlphaspeed1 min 22 secs103💾
2022-04-18 15:12:03flexus1 min 16 secs132💾
2022-04-17 12:04:50fan13.4 secs137💾
2022-04-12 19:08:38NormanAlphaspeed3 min 26 secs114💾
2022-04-11 15:07:13duhafnusa47 min 34 secs127💾
2022-04-11 14:45:44duhafnusa442.4 secs145💾
2022-04-11 14:34:53duhafnusa442 secs124💾
2022-04-11 14:33:19duhafnusa430.6 secs125💾
2022-04-09 19:43:20duhafnusa44 min 39 secs99💾
2022-04-09 17:01:30NappMotorsports19.4 secs111💾
2022-04-09 16:20:39NappMotorsports1 min 23 secs105💾
2022-04-09 15:55:20NappMotorsports1 min 14 secs124💾
2022-04-08 23:19:35NormanAlphaspeed1 min 27 secs141💾
2022-04-08 22:37:58NormanAlphaspeed40 secs107💾
2022-04-05 23:58:29BeerMoneyMotorsports1 min 12 secs145💾
2022-04-05 22:59:02ZHoob200428 min 3 secs154💾
2022-04-05 13:38:22BeerMoneyMotorsports1 min 12 secs153💾
2022-04-04 09:59:46AndreyB1 min 15 secs138💾
2022-04-03 17:43:53BeerMoneyMotorsports22.2 secs138💾
2022-04-02 13:28:42nmstec1 min 42 secs149💾
2022-04-02 12:57:16nmstec1 min 7 secs125💾
2022-04-02 12:54:44nmstec42.7 secs121💾
2022-04-01 23:04:22nmstec2 min 4 secs143💾
2022-04-01 22:57:27nmstec1 min 6 secs127💾
2022-04-01 22:35:39nmstec1 min 24 secs115💾
2022-04-01 22:20:28nmstec1 min 28 secs139💾
2022-04-01 22:13:22nmstec44 secs137💾
2022-04-01 21:07:10nmstec11.3 secs103💾
2022-04-01 21:06:25nmstec8.93 secs126💾
2022-04-01 20:59:37nmstec1 min 6 secs126💾
2022-04-01 18:23:05BeerMoneyMotorsports27.6 secs124💾
2022-04-01 00:28:07nmstec1 min 6 secs114💾
2022-04-01 00:18:32nmstec1 min 28 secs98💾
2022-03-31 17:19:24nmstec44.8 secs119💾
2022-03-31 17:15:17nmstec24.5 secs118💾
2022-03-31 17:08:08nmstec23.6 secs125💾
2022-03-31 15:45:45nmstec24.7 secs118💾
2022-03-31 15:21:02nmstec2 min 34 secs140💾
2022-03-31 15:11:23nmstec2 min 34 secs110💾
2022-03-30 20:31:29nmstec36.3 secs157💾
2022-03-30 16:50:16duhafnusa420.4 secs124💾
2022-03-30 16:43:11duhafnusa425.9 secs126💾
2022-03-30 16:39:58duhafnusa44.66 secs144💾
2022-03-30 16:37:39duhafnusa45.27 secs124💾
2022-03-30 16:34:57duhafnusa46.44 secs114💾
2022-03-30 16:21:18duhafnusa45 min 7 secs131💾
2022-03-30 16:20:57duhafnusa45 min 7 secs133💾
2022-03-28 20:45:38duhafnusa44 min 39 secs124💾
2022-03-21 16:48:27NormanAlphaspeed10.7 secs127💾
2022-03-19 17:42:48NormanAlphaspeed31.7 secs112💾
2022-03-19 15:17:02BeerMoneyMotorsports16.4 secs115💾
2022-03-18 21:34:02pk3867.06 secs123💾
2022-03-18 21:08:53Kavabanga2 min 41 secs112💾
2022-03-18 17:13:39BeerMoneyMotorsports3 min 57 secs147💾
2022-03-14 20:36:53Lambo975 min 50 secs127💾
2022-03-13 19:50:31nmstec36.3 secs143💾
2022-03-13 18:23:34nmstec7.61 secs125💾
2022-03-12 20:49:29NormanAlphaspeed1 min 53 secs129💾
2022-03-12 20:48:57NormanAlphaspeed1 min 53 secs123💾
2022-03-12 20:48:26NormanAlphaspeed2 min 26 secs137💾
2022-03-08 23:30:21Lambo971 min 36 secs185💾
2022-03-08 23:21:03Lambo9729 min 26 secs112💾
2022-03-08 01:06:46nmstec25.5 secs123💾
2022-03-06 09:35:12JRD McLAREN3 min 43 secs163💾
2022-03-06 09:34:47JRD McLAREN4 min 35 secs149💾
2022-03-05 16:15:51wreckracing8.94 secs129💾
2022-03-05 16:13:12wreckracing9.24 secs131💾
2022-03-05 15:32:55BeerMoneyMotorsports22.1 secs131💾
2022-03-04 20:47:06Simon@FutureProof3 min 19 secs140💾
2022-03-04 15:23:14BeerMoneyMotorsports13.1 secs148💾
2022-03-04 13:20:40duhafnusa49 min 1 sec135💾
2022-03-03 19:11:41duhafnusa49 min 23 secs110💾
2022-03-03 18:50:47duhafnusa457.1 secs180💾
2022-03-03 18:26:54duhafnusa416.2 secs105💾
2022-03-03 12:55:16duhafnusa47 min 29 secs135💾
2022-03-03 12:35:12duhafnusa48 min 19 secs135💾
2022-03-02 22:07:21duhafnusa41 min 19 secs132💾
2022-03-02 14:10:03duhafnusa417.8 secs118💾
2022-02-27 20:53:38duhafnusa48 min 39 secs138💾
2022-02-27 20:52:46duhafnusa48 min 39 secs121💾
2022-02-26 21:00:30Simon@FutureProof2 min 46 secs122💾
2022-02-26 21:00:12Simon@FutureProof3 min 36 secs111💾
2022-02-26 20:59:47Simon@FutureProof3 min 14 secs109💾
2022-02-26 20:54:14Simon@FutureProof3 min 19 secs120💾
2022-02-26 20:52:38Simon@FutureProof3 min 29 secs116💾
2022-02-25 19:14:59deffie8310.1 secs156💾
2022-02-24 13:19:02duhafnusa47 min 29 secs143💾
2022-02-24 04:47:40deffie836.27 secs138💾
2022-02-23 20:23:51duhafnusa411 min 4 secs134💾
2022-02-21 13:47:33duhafnusa48 min 25 secs149💾
2022-02-21 11:23:31md_sanci26.1 secs137💾
2022-02-19 11:55:52duhafnusa47 min 55 secs137💾
2022-02-18 07:21:35tmbryhn42 secs132💾
2022-02-18 06:23:23OSprey4219 min 23 secs109💾
2022-02-17 14:00:16duhafnusa413 min 42 secs143💾
2022-02-17 13:58:59duhafnusa42 min 57 secs134💾
2022-02-16 12:07:24BeerMoneyMotorsports8.01 secs146💾
2022-02-15 20:18:54NormanAlphaspeed4 min 47 secs168💾
2022-02-15 20:18:04NormanAlphaspeed2 min 22 secs135💾
2022-02-15 20:17:34NormanAlphaspeed44.7 secs135💾
2022-02-15 17:08:39deffie8312.6 secs134💾
2022-02-15 17:01:20deffie8318.6 secs142💾
2022-02-14 19:32:00deffie8313.5 secs137💾
2022-02-12 21:08:45deffie839.76 secs117💾
2022-02-12 15:03:40duhafnusa432.3 secs122💾
2022-02-10 15:19:28Nightsknight454 min 54 secs168💾
2022-02-10 14:40:32Nightsknight455 min 50 secs147💾
2022-02-08 16:38:32BeerMoneyMotorsports34.9 secs127💾
2022-02-05 13:46:33duhafnusa417 min 9 secs128💾
2022-02-04 18:44:21BeerMoneyMotorsports55 secs119💾
2022-02-04 13:07:17nmstec21.6 secs127💾
2022-02-04 13:06:31nmstec47.7 secs124💾
2022-02-04 12:48:25duhafnusa417 min 43 secs136💾
2022-02-03 19:29:46AndreyB30.7 secs173💾
2022-02-01 13:18:53nmstec31.1 secs122💾
2022-02-01 13:18:16nmstec25.1 secs121💾
2022-02-01 13:17:37nmstec25.8 secs118💾
2022-02-01 13:16:42nmstec1 min 29 secs120💾
2022-02-01 12:40:50duhafnusa431.3 secs122💾
2022-02-01 12:09:06duhafnusa41 min 22 secs173💾
2022-02-01 12:07:00duhafnusa41 min 53 secs124💾
2022-01-31 11:30:44duhafnusa44 min 14 secs208💾
2022-01-31 11:01:43duhafnusa41 min 32 secs137💾
2022-01-30 18:21:32BeerMoneyMotorsports1 min 40 secs138💾
2022-01-28 17:12:33duhafnusa415 min 37 secs150💾
2022-01-28 15:32:32duhafnusa430.5 secs145💾
2022-01-28 14:56:03duhafnusa425.4 secs142💾
2022-01-28 13:56:33BeerMoneyMotorsports24.9 secs186💾
2022-01-27 15:16:23duhafnusa42 min 42 secs144💾
2022-01-27 15:02:16duhafnusa426.1 secs151💾
2022-01-27 14:46:16duhafnusa422.8 secs170💾
2022-01-27 14:31:49duhafnusa45 min 34 secs145💾
2022-01-27 11:57:17duhafnusa44 min 22 secs149💾
2022-01-26 17:52:51BeerMoneyMotorsports3 min 12 secs130💾
2022-01-26 17:24:04BeerMoneyMotorsports32.5 secs116💾
2022-01-26 17:21:26BeerMoneyMotorsports4 min 45 secs129💾
2022-01-26 17:11:02duhafnusa41 min 45 secs128💾
2022-01-26 16:18:18duhafnusa43 min 43 secs153💾
2022-01-26 13:52:34nmstec1 min 16 secs138💾
2022-01-25 19:46:45nmstec48.2 secs147💾
2022-01-25 19:46:10nmstec39.1 secs147💾
2022-01-25 18:42:18nmstec14.1 secs144💾
2022-01-25 18:41:43nmstec46 secs141💾
2022-01-25 18:40:54nmstec32.9 secs146💾
2022-01-25 12:20:19nmstec15.7 secs124💾
2022-01-25 12:19:49nmstec36.4 secs114💾
2022-01-25 12:19:20nmstec29.9 secs132💾
2022-01-24 18:24:13nmstec18.9 secs141💾
2022-01-24 17:47:45BeerMoneyMotorsports1 min 52 secs146💾
2022-01-24 16:22:21nmstec37.6 secs183💾
2022-01-23 20:46:27Creesic4 secs183💾
2022-01-23 20:31:08Creesic14.7 secs167💾
2022-01-23 19:51:32Creesic8.83 secs148💾
2022-01-21 17:45:06nmstec1 min 51 secs124💾
2022-01-21 17:44:12nmstec2 min 16 secs145💾
2022-01-21 17:02:24nmstec36.2 secs157💾
2022-01-21 17:01:50nmstec58.3 secs155💾
2022-01-21 17:01:16nmstec42 secs165💾
2022-01-20 16:13:25nmstec36.5 secs116💾
2022-01-20 14:53:09BeerMoneyMotorsports24.9 secs121💾
2022-01-19 23:04:00nmstec1 min 7 secs114💾
2022-01-19 23:02:43nmstec59.9 secs139💾
2022-01-19 23:02:01nmstec1 min 19 secs116💾
2022-01-19 21:40:03nmstec6.77 secs117💾
2022-01-19 21:35:27nmstec1 min 11 secs155💾
2022-01-19 17:43:43nmstec2 min 44 secs135💾
2022-01-19 15:09:58nmstec50.3 secs112💾
2022-01-18 15:02:21nmstec57.9 secs150💾
2022-01-17 22:05:10nmstec10.7 secs181💾
2022-01-17 22:04:38nmstec9.03 secs149💾
2022-01-17 22:04:07nmstec10.1 secs169💾
2022-01-17 22:03:38nmstec18.5 secs146💾
2022-01-17 22:03:08nmstec13.9 secs150💾
2022-01-17 22:02:37nmstec45.5 secs170💾
2022-01-17 14:03:55BeerMoneyMotorsports4 min 8 secs169💾
2022-01-14 19:13:21nmstec32.1 secs145💾
2022-01-14 19:04:40nmstec1 min 2 secs154💾
2022-01-14 18:50:18nmstec46.2 secs139💾
2022-01-14 18:28:06nmstec27 secs153💾
2022-01-14 18:20:24nmstec16.2 secs148💾
2022-01-14 18:09:12nmstec11.5 secs287💾
2022-01-14 14:32:13nmstec39.2 secs297💾
2022-01-13 23:00:28OSprey4218 min 13 secs130💾
2022-01-13 16:07:13BeerMoneyMotorsports1 min 24 secs143💾
2022-01-12 17:54:07BeerMoneyMotorsports20.7 secs153💾
2022-01-12 17:40:22BeerMoneyMotorsports15.7 secs146💾
2022-01-09 15:36:44BeerMoneyMotorsports22.5 secs122💾
2022-01-08 23:12:58AndreyB3 min 34 secs3118💾
2022-01-08 21:09:36AndreyB30.3 secs141💾
2022-01-06 15:51:27md_sanci1 min 1 sec155💾
2022-01-05 23:17:34Creesic49.9 secs164💾
2022-01-05 19:52:17Creesic13.9 secs167💾
2022-01-05 19:35:03Creesic20.7 secs156💾
2022-01-05 18:31:51Creesic12.7 secs127💾
2022-01-05 17:46:22Creesic15.8 secs192💾
2022-01-05 17:43:37Creesic11 secs154💾
2022-01-04 20:48:14BeerMoneyMotorsports38.7 secs168💾
2022-01-04 19:45:11Creesic11.9 secs159💾
2022-01-04 19:43:13Creesic9.06 secs159💾
2022-01-04 19:39:07Creesic16.3 secs173💾
2022-01-04 19:37:30Creesic11.8 secs162💾
2022-01-04 19:08:58Creesic12.1 secs188💾
2022-01-04 19:04:56Creesic17.3 secs155💾
2022-01-04 18:52:29Keith5 min 23 secs183💾
2022-01-03 18:18:10nmstec47.4 secs126💾
2022-01-03 11:59:26BeerMoneyMotorsports2 min139💾
2022-01-03 11:49:25BeerMoneyMotorsports28.5 secs129💾
2022-01-03 11:35:24BeerMoneyMotorsports1 min 35 secs135💾
2022-01-02 17:20:41Keith2 min 26 secs137💾
2022-01-01 19:46:37AndreyB50.2 secs140💾
2022-01-01 19:46:23AndreyB2 min 10 secs149💾
2022-01-01 19:46:10AndreyB3 min 4 secs149💾
2022-01-01 18:51:17ZHoob20041 min 25 secs147💾
2022-01-01 18:04:09BeerMoneyMotorsports15.3 secs129💾
2022-01-01 17:53:30BeerMoneyMotorsports3 min 35 secs145💾
2022-01-01 17:53:05ZHoob20041 min 37 secs150💾
2022-01-01 16:29:09AndreyB38.1 secs144💾
2022-01-01 16:28:53AndreyB58.1 secs133💾
2022-01-01 16:28:40AndreyB1 min 10 secs156💾
2022-01-01 15:24:21BeerMoneyMotorsports1 min 45 secs186💾
2022-01-01 15:14:43BeerMoneyMotorsports43.8 secs157💾
2022-01-01 15:13:31BeerMoneyMotorsports43.8 secs148💾
2021-12-31 18:09:43BeerMoneyMotorsports43.9 secs286💾
2021-12-31 02:35:24AndreyB28.2 secs142💾
2021-12-30 15:19:29OSprey4218 min 13 secs173💾
2021-12-30 12:12:50BeerMoneyMotorsports4 min 21 secs130💾
2021-12-29 17:35:07BeerMoneyMotorsports49.8 secs222💾
2021-12-28 19:39:52BeerMoneyMotorsports1 min 6 secs161💾
2021-12-28 14:16:48BeerMoneyMotorsports2 min 28 secs153💾
2021-12-27 17:43:49BeerMoneyMotorsports1 min 55 secs163💾
2021-12-27 17:23:06BeerMoneyMotorsports2 min 34 secs167💾
2021-12-27 16:56:49BeerMoneyMotorsports2 min 49 secs173💾
2021-12-26 22:10:57BeerMoneyMotorsports1 min 45 secs160💾
2021-12-23 00:24:12ZHoob20044 min 3 secs164💾
2021-12-22 23:36:47ZHoob200438.3 secs171💾
2021-12-22 16:16:51AndreyB41 secs161💾
2021-12-22 16:14:23AndreyB49.1 secs156💾
2021-12-19 21:03:01AndreyB28 secs148💾
2021-12-19 15:22:28AndreyB57.3 secs138💾
2021-12-19 13:58:30AndreyB5 min 1 sec154💾
2021-12-19 13:43:34AndreyB2 min 18 secs138💾
2021-12-16 19:37:24BeerMoneyMotorsports9 min 22 secs145💾
2021-12-15 17:23:31BeerMoneyMotorsports24.8 secs125💾
2021-12-15 01:31:50Captainavi15.4 secs149💾
2021-12-15 01:17:23Captainavi16.9 secs173💾
2021-12-14 21:41:25Captainavi1 min 27 secs152💾
2021-12-14 14:29:37nmstec15.9 secs162💾
2021-12-14 14:18:25nmstec11.7 secs162💾
2021-12-13 14:52:16nmstec1 min 40 secs192💾
2021-12-12 14:58:21nmstec4 min 31 secs141💾
2021-12-12 05:48:21JRD McLAREN17 min 36 secs155💾
2021-12-11 20:07:27BeerMoneyMotorsports9 min 2 secs124💾
2021-12-08 20:51:50BeerMoneyMotorsports1 min 58 secs143💾
2021-12-08 19:40:38BeerMoneyMotorsports1 min 42 secs150💾
2021-12-08 11:45:19nmstec6.7 secs135💾
2021-12-08 11:44:50nmstec7.92 secs160💾
2021-12-08 11:44:19nmstec10.8 secs132💾
2021-12-08 02:26:40mck111745.3 secs130💾
2021-12-07 23:37:22nmstec27.7 secs144💾
2021-12-07 23:35:07nmstec27.7 secs161💾
2021-12-07 17:59:28nmstec5.37 secs148💾
2021-12-07 15:22:33nmstec39.9 secs191💾
2021-12-07 14:00:28nmstec36.8 secs139💾
2021-12-07 13:41:59nmstec14.4 secs145💾
2021-12-06 21:31:50nmstec19.4 secs135💾
2021-12-06 20:09:07nmstec10.8 secs141💾
2021-12-06 20:07:54ZHoob200428.8 secs148💾
2021-12-06 20:02:22nmstec16.8 secs158💾
2021-12-06 19:47:36nmstec12.3 secs165💾
2021-12-06 19:25:41pk38620.1 secs172💾
2021-12-06 19:25:26pk38611.9 secs170💾
2021-12-06 16:40:10nmstec28.4 secs142💾
2021-12-06 16:19:54nmstec9.18 secs142💾
2021-12-05 00:01:03OSprey424 min 56 secs161💾
2021-12-05 00:01:01OSprey424 min 56 secs147💾
2021-12-04 23:18:37OSprey424 min 57 secs165💾
2021-12-04 23:16:59OSprey424 min 57 secs161💾
2021-12-04 17:35:04nmstec22.2 secs150💾
2021-12-04 15:28:31nmstec23.5 secs153💾
2021-12-04 15:16:09nmstec33.2 secs134💾
2021-12-03 16:25:58nmstec6.58 secs152💾
2021-12-03 15:54:06nmstec3 min 12 secs147💾
2021-12-03 14:58:32nmstec51.3 secs126💾
2021-12-03 14:18:14nmstec11 secs116💾
2021-12-03 13:09:53nmstec34.6 secs165💾
2021-12-02 22:28:26nmstec32.5 secs135💾
2021-12-02 21:42:45nmstec21.9 secs148💾
2021-12-02 21:42:00nmstec1 min 2 secs144💾
2021-12-02 20:50:00BeerMoneyMotorsports2 min 17 secs140💾
2021-12-02 20:08:36nmstec15.9 secs143💾
2021-12-02 20:05:12nmstec17 secs140💾
2021-12-02 20:02:17nmstec21.9 secs140💾
2021-12-02 16:25:55nmstec37.1 secs205💾
2021-12-02 16:13:50nmstec36.5 secs171💾
2021-12-02 14:14:27nmstec15.5 secs124💾
2021-12-01 19:49:40nmstec33 secs143💾
2021-11-30 16:26:13nmstec19.5 secs127💾
2021-11-30 16:24:16nmstec14.2 secs161💾
2021-11-29 15:53:03nmstec31.4 secs133💾
2021-11-29 13:58:46nmstec34.6 secs131💾
2021-11-28 13:21:22Nightsknight453 min 56 secs159💾
2021-11-27 15:07:05slokart_mx515.1 secs161💾
2021-11-27 13:12:28nmstec24.6 secs152💾
2021-11-27 12:55:26nmstec2 min 40 secs132💾
2021-11-26 16:14:58Nightsknight453 min 8 secs166💾
2021-11-26 16:09:50nmstec39.1 secs135💾
2021-11-26 15:52:13nmstec7.46 secs127💾
2021-11-25 22:11:47nmstec33.6 secs131💾
2021-11-25 21:30:10nmstec3 min 14 secs131💾
2021-11-25 21:29:08nmstec51.6 secs126💾
2021-11-25 21:28:37nmstec57.8 secs144💾
2021-11-25 17:00:31pk38653.4 secs162💾
2021-11-25 16:16:55nmstec9.88 secs140💾
2021-11-25 16:14:53nmstec11.5 secs134💾
2021-11-25 16:07:20nmstec6.85 secs132💾
2021-11-25 14:51:30pk38622.3 secs174💾
2021-11-25 07:12:43OSprey4257.4 secs152💾
2021-11-25 00:02:21nmstec11.4 secs159💾
2021-11-24 23:15:09nmstec13.1 secs160💾
2021-11-24 05:30:39OSprey4211 min 38 secs157💾
2021-11-18 22:31:58ZHoob20042 min 21 secs135💾
2021-11-18 22:18:27ZHoob200456.8 secs132💾
2021-11-17 08:20:29Keith1 min 45 secs146💾
2021-11-16 23:53:11Keith16 min 31 secs147💾
2021-11-16 09:07:11Keith2 min 7 secs128💾
2021-11-14 21:50:20stefanst1 min 49 secs134💾
2021-11-14 21:17:57duhafnusa41 min 13 secs151💾
2021-11-14 17:58:20BeerMoneyMotorsports20.4 secs129💾
2021-11-14 13:08:42duhafnusa453.5 secs155💾
2021-11-11 18:46:08Keith49.1 secs160💾
2021-11-11 13:13:56duhafnusa41 min 42 secs130💾
2021-11-11 12:49:14duhafnusa41 min 32 secs130💾
2021-11-09 23:23:49OSprey427 min 28 secs167💾
2021-11-09 13:22:34duhafnusa448.2 secs128💾
2021-11-09 13:04:46duhafnusa41 min 11 secs132💾
2021-11-07 17:38:20Keith16 min 24 secs134💾
2021-11-07 17:36:06Keith1 min 14 secs201💾
2021-11-07 10:20:29Crazy Striker1 min 4 secs135💾
2021-11-07 09:10:43Keith1 min 36 secs161💾
2021-11-07 09:10:07Keith8 min 6 secs159💾
2021-11-06 22:26:22Keith1 min 11 secs161💾
2021-11-06 09:48:33Keith51 secs131💾
2021-11-06 09:43:29Keith14.4 secs125💾
2021-11-06 09:43:10Keith57.5 secs138💾
2021-11-06 09:40:08Keith14.4 secs130💾
2021-11-06 09:39:28Keith57.5 secs153💾
2021-11-06 09:32:43Keith59.1 secs173💾
2021-11-06 05:31:02OSprey421 min 38 secs141💾
2021-11-06 04:59:28OSprey4215 min 33 secs178💾
2021-11-04 20:59:29AndreyB1 min 9 secs212💾
2021-11-04 08:46:07OSprey4211 min 4 secs174💾
2021-11-03 21:09:09Keith17 min126💾
2021-11-02 19:06:47Nightsknight459 min 47 secs210💾
2021-11-02 16:40:18AndreyB2 min 33 secs189💾
2021-11-02 13:20:21Nightsknight4538 min 45 secs151💾
2021-11-01 14:35:51Nightsknight455 min 37 secs186💾
2021-10-31 16:11:31AndreyB1 min 59 secs194💾
2021-10-31 13:11:56AndreyB53.8 secs175💾
2021-10-28 11:29:00BeerMoneyMotorsports5 min 11 secs174💾
2021-10-28 06:06:59andreika24 min 1 sec153💾
2021-10-28 05:43:14andreika1 h 32 min 3 secs189💾
2021-10-26 18:37:57Cadence10 min 20 secs161💾
2021-10-26 12:45:38Cadence19 min 33 secs148💾
2021-10-26 12:24:45Cadence19 min 33 secs188💾
2021-10-24 17:44:05Cadence1 min 23 secs183💾
2021-10-23 13:47:27Cadence1.31 secs186💾
2021-10-23 13:46:58Cadence2.62 secs185💾
2021-10-22 22:44:29BeerMoneyMotorsports14 min 55 secs152💾
2021-10-19 23:07:08MgFoster6 min 29 secs138💾
2021-10-19 23:06:22MgFoster21 min 48 secs130💾
2021-10-19 19:08:57BeerMoneyMotorsports6 min 57 secs150💾
2021-10-18 15:49:39MgFoster23.1 secs167💾
2021-10-18 15:41:41MgFoster50.6 secs136💾
2021-10-18 15:41:19MgFoster23.1 secs140💾
2021-10-18 12:15:24Cadence36 min 57 secs149💾
2021-10-17 18:21:41AndreyB27.9 secs171💾
2021-10-17 16:18:10BeerMoneyMotorsports9 min 42 secs131💾
2021-10-14 18:48:18BeerMoneyMotorsports7 min 54 secs153💾
2021-10-14 18:01:42BeerMoneyMotorsports52 secs177💾
2021-10-14 12:49:12bill1 min 56 secs162💾
2021-10-14 12:48:50bill45.4 secs136💾
2021-10-14 12:48:34bill1 min 51 secs141💾
2021-10-13 18:36:05BeerMoneyMotorsports37 secs136💾
2021-10-11 19:05:27BeerMoneyMotorsports14.8 secs246💾
2021-10-11 18:37:20BeerMoneyMotorsports20 min 17 secs154💾
2021-10-11 15:46:46BeerMoneyMotorsports28.4 secs184💾
2021-10-08 22:22:02BeerMoneyMotorsports8 min 10 secs138💾
2021-10-08 15:01:24BeerMoneyMotorsports16 min 9 secs139💾
2021-10-06 16:30:10BeerMoneyMotorsports15.7 secs158💾
2021-10-06 12:41:30BeerMoneyMotorsports14.5 secs197💾
2021-10-05 17:17:44AndreyB8.92 secs212💾
2021-10-02 20:37:26Abricos26 min 21 secs184💾
2021-09-29 11:27:47Keith51.9 secs157💾
2021-09-29 11:16:59JRD McLAREN16 min 3 secs134💾
2021-09-28 18:45:33BeerMoneyMotorsports12 min 52 secs136💾
2021-09-28 13:32:41BeerMoneyMotorsports10 min 28 secs156💾
2021-09-26 21:54:45AndreyB1 min 52 secs158💾
2021-09-26 21:12:01AndreyB45.3 secs148💾
2021-09-25 19:25:39AndreyB1 min 57 secs173💾
2021-09-20 21:51:39AndreyB6 min 6 secs204💾
2021-09-20 18:53:33Abricos1 min 46 secs174💾
2021-09-20 18:53:10Abricos1 min 37 secs184💾
2021-09-19 15:56:34STURX834.4 secs137💾
2021-09-19 07:40:37Dron_Gus6 min 46 secs164💾
2021-09-14 16:36:13AndreyB23.5 secs170💾
2021-09-14 13:25:39mck111754 min 4 secs186💾
2021-09-11 07:41:21Abricos1 min 46 secs193💾
2021-09-08 17:03:30mck111720 min 48 secs164💾
2021-09-07 13:56:27mck111715 min 8 secs153💾
2021-09-06 05:47:25Biggie_2548.43 secs158💾
2021-09-06 05:46:13Biggie_25410.9 secs153💾
2021-09-05 14:34:59AndreyB9.02 secs146💾
2021-09-04 18:22:08starsky3 min 40 secs189💾
2021-09-01 06:07:12md_sanci19 min 8 secs176💾
2021-08-29 12:48:56starsky1 min 28 secs179💾
2021-08-28 16:44:54md_sanci53 min 16 secs147💾
2021-08-28 05:12:18md_sanci26 min 24 secs163💾
2021-08-28 05:11:19md_sanci23 min 28 secs168💾
2021-08-26 16:31:36Abricos2 min 22 secs232💾
2021-08-26 16:31:17Abricos2 min 28 secs330💾
2021-08-26 14:56:32Crazy Striker12 min 42 secs145💾
2021-08-24 00:21:29duhafnusa425.5 secs183💾
2021-08-23 14:52:29duhafnusa411 min 38 secs190💾
2021-08-23 11:20:26md_sanci15 min 50 secs195💾
2021-08-23 10:57:35andreika4 min 59 secs176💾
2021-08-22 17:44:35duhafnusa42 min 9 secs153💾
2021-08-22 13:11:57md_sanci12 min 10 secs160💾
2021-08-17 02:09:11andreika12 min 36 secs204💾
2021-08-16 20:40:54duhafnusa42 min 19 secs145💾
2021-08-16 19:28:28duhafnusa41 min 10 secs139💾
2021-08-16 16:17:01duhafnusa45 min 33 secs173💾
2021-08-16 15:46:08duhafnusa43 min 17 secs161💾
2021-08-13 14:30:26Biggie_25456.4 secs188💾
2021-08-10 16:05:19Jtfairclough3 min 50 secs144💾
2021-08-09 20:14:13Abricos7 min 59 secs226💾
2021-08-03 14:30:30SmartInCar30.2 secs209💾
2021-08-03 08:37:50Thethanvfoster11 min 5 secs181💾
2021-08-02 04:52:59mck111714 min 21 secs199💾
2021-07-30 09:27:24andreika28 secs206💾
2021-07-27 20:16:01Lambo9753.9 secs186💾
2021-07-26 21:54:02Lambo9754.4 secs177💾
2021-07-26 21:45:57Lambo9728.4 secs199💾
2021-07-26 21:18:37Lambo9744.3 secs140💾
2021-07-26 21:02:50Lambo971 min148💾
2021-07-26 14:45:28Lambo9720.6 secs180💾
2021-07-24 23:06:24AndreyB1 min 29 secs142💾
2021-07-24 23:02:26nadrol7 min 31 secs158💾
2021-07-24 11:50:30AndreyB59.7 secs152💾
2021-07-24 01:22:02AndreyB1 min 6 secs195💾
2021-07-24 00:47:00Lambo9720.6 secs191💾
2021-07-20 14:27:11Lambo976 min 15 secs160💾
2021-07-19 22:31:51stefanst1 min 37 secs161💾
2021-07-19 20:26:19BeerMoneyMotorsports13 secs158💾
2021-07-19 10:02:02duhafnusa442.5 secs144💾
2021-07-18 21:07:55AndreyB40.5 secs232💾
2021-07-18 15:02:30duhafnusa428.2 secs153💾
2021-07-17 16:41:49AndreyB2.93 secs166💾
2021-07-17 16:20:54md_sanci3 min 19 secs179💾
2021-07-13 21:46:13Keith1 min 45 secs144💾
2021-07-13 21:25:37Keith1 min 11 secs144💾
2021-07-13 19:54:55Keith23.9 secs144💾
2021-07-13 17:55:30Keith25 secs162💾
2021-07-11 21:50:49Abricos9 min 35 secs193💾
2021-07-11 17:53:29AndreyB11.8 secs149💾
2021-07-11 17:31:16AndreyB15.1 secs186💾
2021-07-10 18:10:22Keith55.3 secs149💾
2021-07-10 18:10:10Keith51.9 secs148💾
2021-07-10 18:09:58Keith29 secs148💾
2021-07-09 15:12:19Keith51.8 secs155💾
2021-07-09 09:12:15Keith59.9 secs139💾
2021-07-09 09:11:30Keith38 secs166💾
2021-07-08 22:27:14Keith4 min 10 secs142💾
2021-07-07 20:10:54Keith29.2 secs151💾
2021-07-07 19:27:48Keith17.3 secs166💾
2021-07-02 07:01:48dexter_lab34.4 secs217💾
2021-07-02 06:59:27dexter_lab52.8 secs151💾
2021-07-02 06:58:22dexter_lab39.9 secs144💾
2021-06-30 19:08:22BeerMoneyMotorsports26.2 secs178💾
2021-06-25 19:19:49Abricos15.8 secs158💾
2021-06-23 15:31:41BeerMoneyMotorsports20.6 secs147💾
2021-06-23 14:47:11BeerMoneyMotorsports37.4 secs153💾
2021-06-21 22:29:26CheeriooV231.6 secs177💾
2021-06-21 22:29:02CheeriooV25 min 27 secs150💾
2021-06-18 17:55:37beufa33 min 25 secs148💾
2021-06-18 17:53:50beufa30 min 36 secs155💾
2021-06-18 17:46:44md_sanci7 min 36 secs158💾
2021-06-18 17:45:13md_sanci37 min 29 secs169💾
2021-06-12 16:33:35BeerMoneyMotorsports8.47 secs183💾
2021-06-10 20:21:29BeerMoneyMotorsports18 secs163💾
2021-06-10 15:38:04md_sanci1 min 58 secs150💾
2021-06-09 14:48:30Kavabanga15 min 55 secs226💾
2021-06-09 14:48:05Kavabanga2 min 8 secs170💾
2021-06-07 19:28:22Jtfairclough20.1 secs155💾
2021-06-07 18:31:50Jtfairclough54.5 secs169💾
2021-06-05 20:53:59Kavabanga40 min 33 secs202💾
2021-06-02 16:20:03Dron_Gus4 min 17 secs202💾
2021-06-01 06:40:58Dron_Gus22 min 12 secs165💾
2021-05-31 20:59:32Abricos13.7 secs230💾
2021-05-30 11:42:02AndreyB32.6 secs160💾
2021-05-30 11:41:44AndreyB5 min 41 secs157💾
2021-05-30 11:40:32AndreyB5 min 41 secs173💾
2021-05-30 11:40:13AndreyB32.6 secs165💾
2021-05-30 04:19:50Boostonabudget21 min 47 secs210💾
2021-05-30 04:18:39Boostonabudget59 min 5 secs222💾
2021-05-29 06:14:42AndreyB2 min 22 secs173💾
2021-05-29 04:21:10Boostonabudget26 min 40 secs198💾
2021-05-28 19:23:09BeerMoneyMotorsports1 min161💾
2021-05-28 19:23:07BeerMoneyMotorsports1 min158💾
2021-05-28 14:29:36BeerMoneyMotorsports10 min 19 secs181💾
2021-05-26 20:55:47BeerMoneyMotorsports2 min 31 secs183💾
2021-05-26 20:54:18BeerMoneyMotorsports3 min 59 secs160💾
2021-05-26 06:21:59AndreyB26.8 secs198💾
2021-05-25 16:19:32Crazy Striker1 h 3 min 9 secs177💾
2021-05-23 11:28:21AndreyB20.2 secs171💾
2021-05-23 07:26:46AndreyB2 min 43 secs164💾
2021-05-23 07:26:34AndreyB8 min 11 secs159💾
2021-05-23 07:26:23AndreyB4 min 46 secs171💾
2021-05-23 07:26:11AndreyB6.69 secs160💾
2021-05-23 07:25:57AndreyB8 min 30 secs162💾
2021-05-15 17:30:37Kavabanga4 min 16 secs156💾
2021-05-14 19:23:12Kavabanga1 min 26 secs172💾
2021-05-14 19:22:28Kavabanga2 min 37 secs158💾
2021-05-13 20:55:13Kavabanga1 min 32 secs169💾
2021-05-13 20:54:52Kavabanga2 min 2 secs165💾
2021-05-07 08:08:09Crazy Striker25 min 30 secs187💾
2021-05-07 07:50:37Crazy Striker12 min 31 secs162💾
2021-05-07 07:36:42Crazy Striker15 min 24 secs169💾
2021-05-05 03:34:21Crazy Striker14 min 10 secs179💾
2021-05-04 19:17:00Boostonabudget8 min 39 secs180💾
2021-05-04 04:45:50Boostonabudget20 min 13 secs205💾
2021-05-04 02:55:37Boostonabudget4 min 32 secs181💾
2021-05-02 09:32:20Crazy Striker17.7 secs163💾
2021-05-02 09:17:18Crazy Striker48.7 secs211💾
2021-05-02 09:17:01Crazy Striker37.2 secs167💾
2021-04-30 04:22:18Boostonabudget9 min 20 secs175💾
2021-04-28 12:54:59BeerMoneyMotorsports10 min 28 secs156💾
2021-04-27 14:42:17md_sanci1 min 18 secs155💾
2021-04-27 14:40:47md_sanci53.1 secs161💾
2021-04-27 13:05:41mck11171 h 41 min 54 secs180💾
2021-04-26 14:51:04md_sanci2 min 47 secs162💾
2021-04-25 21:58:28AndreyB10.5 secs208💾
2021-04-25 11:49:34beufa22 min 20 secs163💾
2021-04-25 06:05:49beufa35 min 46 secs160💾
2021-04-25 00:35:13Boostonabudget47.2 secs181💾
2021-04-25 00:26:09Boostonabudget52 secs174💾
2021-04-24 23:36:45Boostonabudget45.9 secs169💾
2021-04-23 03:43:51Boostonabudget11 min 19 secs210💾
2021-04-23 03:15:57Boostonabudget4 min 5 secs211💾
2021-04-15 16:34:35Simon@FutureProof5 min 37 secs231💾
2021-04-11 04:55:31Crazy Striker14 min 45 secs191💾
2021-04-10 14:11:49Jokeri2 min 45 secs165💾
2021-04-10 05:05:10Boostonabudget15 min 34 secs166💾
2021-04-09 16:27:40starsky18.5 secs232💾
2021-04-09 13:30:45Jokeri1 min 40 secs162💾
2021-04-09 13:26:04Jokeri4 min 13 secs170💾
2021-04-09 09:56:19beufa49 min 40 secs157💾
2021-04-09 09:54:56beufa9 min 59 secs175💾
2021-04-08 11:14:52AndreyB48.3 secs161💾
2021-04-07 16:37:33AndreyB36.7 secs211💾
2021-04-02 15:17:55AndreyB1 min 49 secs156💾
2021-04-02 15:17:46AndreyB54.6 secs160💾
2021-04-02 15:17:38AndreyB1 min 49 secs167💾
2021-04-02 15:11:30AndreyB24.1 secs167💾
2021-03-29 15:09:50Thethanvfoster51.1 secs176💾
2021-03-29 15:09:49Thethanvfoster51.1 secs172💾
2021-03-29 15:08:56Thethanvfoster28 min 18 secs161💾
2021-03-22 20:28:29Thethanvfoster2 min 31 secs176💾
2021-03-22 16:06:03Crazy Striker13 min 13 secs177💾
2021-03-22 16:00:06Crazy Striker14 min 17 secs203💾
2021-03-22 03:39:06Boostonabudget14 min 16 secs169💾
2021-03-16 08:24:38MgFoster27 min 37 secs174💾
2021-03-15 21:13:07MgFoster14.6 secs174💾
2021-03-15 21:11:56MgFoster6 min 14 secs173💾
2021-03-15 21:11:37MgFoster7 min 48 secs167💾
2021-03-15 21:11:11MgFoster4 min 26 secs163💾
2021-03-15 21:09:26MgFoster7 min 18 secs165💾
2021-03-15 21:09:21MgFoster7 min 18 secs164💾
2021-03-15 20:08:15MgFoster6 min 28 secs162💾
2021-03-15 11:28:16beufa49 min 40 secs175💾
2021-03-05 17:48:29md_sanci1 h 1 min 44 secs194💾
2021-03-03 23:04:18deaner58.2 secs180💾
2021-03-03 23:03:39deaner3 min 53 secs195💾
2021-03-02 04:38:23beufa1 h 58 min 5 secs159💾
2021-02-24 02:59:56md_sanci18 min 43 secs169💾
2021-02-23 12:37:58beufa54 min 9 secs165💾
2021-02-21 22:07:50AndreyB1 min 33 secs183💾
2021-02-20 12:32:40beufa49 min 7 secs167💾
2021-02-20 03:23:26beufa45 min 13 secs179💾
2021-02-19 03:46:16beufa23 min 57 secs174💾
2021-02-14 12:49:52beufa1 h 3 min 56 secs174💾
2021-02-14 12:48:10beufa1 h 8 min 30 secs168💾
2021-02-14 07:49:34beufa1 h 8 min 30 secs176💾
2021-02-14 06:26:57Gepro20.1 secs198💾
2021-02-14 05:17:06Gepro1 min 53 secs206💾
2021-02-13 03:55:07beufa22 min 45 secs179💾
2021-02-13 03:54:32beufa22 min 6 secs169💾
2021-02-11 03:33:07beufa40 min 38 secs180💾
2021-02-10 03:40:49beufa54 min 9 secs173💾
2021-02-09 12:06:55beufa5 min 44 secs167💾
2021-02-09 12:03:55beufa5 min 44 secs170💾
2021-02-08 14:02:13Gepro1 min 41 secs232💾
2021-02-08 05:35:36beufa27 min 33 secs182💾
2021-02-08 05:34:54beufa19 min 25 secs185💾
2021-02-05 12:40:52beufa26 min 24 secs186💾
2021-02-05 12:40:07beufa31 min 21 secs164💾
2021-02-05 10:55:46beufa11 min 55 secs192💾
2021-02-05 10:55:19beufa11 min 59 secs173💾
2021-01-31 12:36:57Abricos5 min 30 secs170💾
2021-01-31 06:06:25beufa1 h 24 min 29 secs225💾
2021-01-29 15:27:36md_sanci21 min 24 secs194💾
2021-01-29 12:34:46beufa56 min 14 secs188💾
2021-01-29 03:27:07beufa46 min 30 secs172💾
2021-01-28 12:37:25beufa51 min 56 secs182💾
2021-01-28 03:36:16beufa51 min 12 secs169💾
2021-01-27 03:34:40beufa21 min 50 secs190💾
2021-01-27 03:34:03beufa25 min 44 secs177💾
2021-01-26 12:38:42beufa1 h 1 sec188💾
2021-01-24 13:03:14beufa45 min 20 secs191💾
2021-01-24 13:01:49beufa46 min 52 secs195💾
2021-01-22 04:44:43beufa1 h 52 min 33 secs197💾
2021-01-21 14:45:31Crazy Striker12 min 34 secs199💾
2021-01-21 12:34:33beufa53 min 8 secs188💾
2021-01-21 08:00:00beufa1 h 22 min 49 secs193💾
2021-01-19 05:46:39beufa1 h 49 min 30 secs179💾
2021-01-15 14:08:48beufa12 min 57 secs190💾
2021-01-15 04:57:13beufa30 min 21 secs180💾
2021-01-15 04:56:35beufa16 min 12 secs181💾
2021-01-14 13:40:02Thethanvfoster29.8 secs215💾
2021-01-14 13:07:06Crazy Striker16 min 49 secs189💾
2021-01-14 04:27:14beufa50 min 27 secs204💾
2021-01-13 13:31:45beufa48 min 28 secs442💾
2021-01-13 10:48:35Simon@FutureProof8 min 34 secs192💾
2021-01-13 10:47:53Simon@FutureProof5 min 4 secs177💾
2021-01-13 10:47:16Simon@FutureProof9 min 15 secs185💾
2021-01-13 06:05:20beufa2 min 24 secs182💾
2021-01-12 13:50:45beufa31 min 28 secs184💾
2021-01-12 04:22:28beufa38 min 58 secs188💾
2021-01-11 05:29:10beufa27 min 10 secs173💾
2021-01-11 05:28:23beufa20 min 37 secs170💾
2021-01-09 13:37:28beufa41 min 12 secs179💾
2021-01-08 11:02:53beufa1 h 5 min 16 secs201💾
2021-01-08 10:58:58beufa1 h 5 min 16 secs164💾
2021-01-08 03:13:16Crazy Striker15 min 12 secs172💾
2021-01-07 16:02:00Crazy Striker15 min 23 secs189💾
2021-01-07 15:39:43Crazy Striker13 min169💾
2021-01-07 13:52:56Simon@FutureProof49.3 secs184💾
2021-01-07 13:52:46Simon@FutureProof30.3 secs171💾
2021-01-07 13:52:37Simon@FutureProof51.6 secs180💾
2021-01-06 10:11:26beufa1 h 9 min 20 secs177💾
2021-01-06 08:36:40beufa1 h 9 min 20 secs174💾
2021-01-06 02:31:20md_sanci2 min 7 secs203💾
2021-01-05 09:11:08md_sanci13 min 22 secs215💾
2021-01-04 19:43:13Thethanvfoster1 min 21 secs200💾
2021-01-04 19:42:50Thethanvfoster1 min 41 secs169💾
2021-01-04 19:26:29AndreyB26.7 secs285💾
2021-01-04 14:46:52Thethanvfoster6 min 45 secs183💾
2021-01-04 14:46:31Thethanvfoster6 min 45 secs180💾
2021-01-03 19:06:54AndreyB27.7 secs212💾
2021-01-03 18:35:20AndreyB27.7 secs244💾
2021-01-03 14:58:28bill5 min 39 secs201💾
2020-12-29 19:23:47Abricos16 min 11 secs184💾
2020-12-25 21:16:44fan27 min 22 secs248💾
2020-12-25 21:15:13fan1 min 44 secs223💾
2020-12-25 10:54:53fan27.9 secs251💾
2020-12-25 10:54:27fan24.1 secs175💾
2020-12-22 13:39:59bill28.8 secs183💾
2020-12-20 08:04:58Gepro4 min 2 secs195💾
2020-12-18 08:50:34md_sanci49 min 29 secs184💾
2020-12-15 20:23:07mck111713 min 50 secs279💾
2020-12-13 22:08:13Abricos2 min 29 secs214💾
2020-12-13 22:07:57Abricos2 min 47 secs186💾
2020-12-12 19:01:04starsky55.6 secs250💾
2020-12-12 17:46:22starsky25.7 secs206💾
2020-12-09 14:59:54AndreyB55.2 secs319💾
2020-12-09 14:53:57AndreyB48.5 secs219💾
2020-12-08 21:50:57AndreyB4 min 50 secs228💾
2020-12-07 17:20:47Abricos32.6 secs289💾
2020-12-07 17:20:36Abricos20.9 secs273💾
2020-12-07 17:20:15Abricos31.3 secs234💾
2020-11-27 00:22:04AndreyB53 secs241💾
2020-11-27 00:21:56AndreyB51.5 secs228💾
2020-11-22 12:47:09AndreyB44.8 secs251💾
2020-11-22 10:53:32AndreyB5 min 35 secs284💾
2020-11-22 00:00:49AndreyB1 min 28 secs318💾
2020-11-21 23:47:41AndreyB1 min 35 secs217💾
2020-11-18 19:00:57MgFoster5 min 28 secs205💾
2020-11-07 15:43:47MgFoster1 min 40 secs194💾
2020-11-03 22:13:10MgFoster15 min 58 secs196💾
2020-11-03 22:10:39MgFoster8 min 44 secs187💾
2020-11-02 09:54:24MgFoster22 min 25 secs202💾
2020-11-01 21:05:41MgFoster2 min 41 secs206💾
2020-11-01 20:15:14MgFoster6 min 20 secs190💾
2020-11-01 15:52:29duhafnusa48 min 25 secs186💾
2020-11-01 13:20:21md_sanci36.5 secs195💾
2020-11-01 13:19:15md_sanci5.71 secs204💾
2020-10-22 20:56:04duhafnusa410 min 7 secs225💾
2020-10-19 04:01:24md_sanci1 min 5 secs216💾
2020-10-18 17:13:05duhafnusa42 min 52 secs201💾
2020-10-14 13:07:00md_sanci7 min 26 secs211💾
2020-10-09 13:38:07AndreyB1 min 15 secs254💾
2020-10-07 19:43:13pk3867.97 secs263💾
2020-10-07 19:43:13pk3867.97 secs233💾
2020-10-07 19:43:12pk3867.97 secs198💾
2020-10-07 19:43:12pk3867.97 secs211💾
2020-10-05 23:55:50mapaul54.2 secs271💾
2020-10-05 22:43:18mapaul22.7 secs317💾
2020-10-04 18:46:34mapaul9.25 secs260💾
2020-10-04 15:55:15mapaul12.5 secs262💾
2020-10-01 04:41:49md_sanci1 min 58 secs198💾
2020-09-21 20:13:08fan19.9 secs259💾
2020-09-21 18:36:33fan19.8 secs262💾
2020-09-21 18:23:52fan14.3 secs270💾
2020-09-02 00:54:07ZHoob20041 h 14 min 11 secs253💾
2020-09-01 22:09:10ZHoob20048 min 46 secs217💾
2020-09-01 22:08:13ZHoob20042 min 27 secs215💾
2020-08-31 16:14:07md_sanci6 min 22 secs272💾
2020-08-31 15:48:15md_sanci14 min 48 secs221💾
2020-08-30 11:24:30duhafnusa42 min 14 secs205💾
2020-08-29 19:08:37AndreyB13.8 secs332💾
2020-08-29 10:48:08chippa1 min 56 secs224💾
2020-08-25 11:26:04chippa1 min 54 secs212💾
2020-08-23 13:55:51md_sanci8 min 2 secs232💾
2020-08-22 14:48:21md_sanci17 min 29 secs241💾
2020-08-14 17:46:29AndreyB22.7 secs238💾
2020-08-13 09:18:18AndreyB1 min 37 secs237💾
2020-08-13 09:10:51AndreyB35.2 secs212💾
2020-07-26 15:41:16Abricos1 min 2 secs255💾
2020-07-24 09:38:44Crazy Striker1 min 52 secs236💾
2020-07-21 20:56:03stefanst17.4 secs240💾
2020-07-21 20:53:42stefanst9.5 secs236💾
2020-07-21 20:44:06stefanst4 min 54 secs240💾
2020-07-21 20:42:25stefanst5 min 56 secs243💾
2020-07-12 15:56:41stefanst1 min 16 secs274💾
2020-07-12 15:56:08stefanst2 min 31 secs257💾
2020-07-12 15:55:52stefanst1 min 45 secs233💾
2020-07-12 15:55:31stefanst1 min 45 secs247💾
2020-07-09 18:28:08mck111716 min 51 secs264💾
2020-07-08 18:48:27stefanst10 min 43 secs235💾
2020-07-08 18:47:13stefanst10 min 17 secs263💾
2020-06-27 01:57:03stefanst8 min 33 secs332💾
2020-06-24 17:09:42Crazy Striker3 min 32 secs258💾
2020-06-24 16:45:27Crazy Striker1 min 11 secs234💾
2020-06-09 14:00:15andreika1 min 30 secs272💾